Theta_e
322 324 325 324 325 326 327 328 324 323 325 322 319 319 317 318 318 316 316 314 318 316 311 313 312 313 315 317 319 318 316 320 324 322 324 317 308 308 309 312 317 319 322 323 325 326 325 327 326 326 327 327 328 329 330 332 333 333 334 334 335 336 336 337 337 338 338 338 338 338 338 337 337 338 338 338 338 339 338 339 339 340 340 340 340 340 340 341 341 341 341 341 340 338 337 335 336
323 324 325 324 324 326 327 327 327 327 326 319 316 320 316 315 317 318 319 317 319 315 311 313 313 313 313 313 313 316 316 313 314 315 314 311 309 307 307 313 316 318 320 321 322 323 323 324 324 325 325 325 326 326 327 328 330 331 331 332 333 333 333 334 334 335 335 336 336 336 335 335 335 335 336 337 337 338 338 338 338 339 339 339 340 340 340 340 340 341 340 340 340 340 339 338 337
324 325 325 326 324 324 328 326 324 328 325 319 318 321 317 316 319 321 320 316 315 311 311 311 312 311 310 314 312 316 319 312 311 312 310 310 310 305 307 312 314 316 318 319 320 320 321 321 322 322 321 322 322 323 324 325 326 328 329 330 331 331 331 331 331 332 333 333 333 333 332 334 334 333 334 335 336 337 338 338 338 339 339 339 339 339 339 338 339 340 340 339 339 339 338 339 338
322 326 325 326 325 326 339 333 329 329 321 321 320 321 323 321 319 318 316 314 312 310 311 312 313 309 310 317 313 315 317 311 311 312 309 309 308 305 306 310 311 314 316 317 318 318 318 318 319 318 317 317 317 319 319 320 322 323 325 327 328 329 330 330 329 330 331 331 331 330 330 331 333 332 332 333 334 335 336 337 337 338 337 338 338 338 338 338 338 338 339 339 339 338 337 337 338
319 323 322 324 326 326 334 328 327 327 318 324 320 317 325 322 317 315 313 312 310 309 311 313 315 309 309 313 311 316 316 310 310 309 307 306 305 303 305 307 308 311 314 314 315 315 313 312 313 311 310 309 310 311 311 313 314 316 318 320 323 325 326 327 328 329 330 330 328 328 327 328 330 330 331 331 331 332 333 334 335 335 336 336 336 337 337 337 337 337 337 338 338 337 337 337 337
320 322 319 319 318 316 323 320 321 323 318 325 321 318 321 317 314 313 312 310 310 310 309 312 314 312 311 310 308 312 311 309 309 308 305 304 303 303 305 304 305 307 309 310 310 309 306 305 304 304 303 302 303 303 304 305 306 307 309 311 313 316 319 320 323 324 325 325 324 325 325 326 328 328 329 329 329 330 331 332 332 332 333 334 335 335 335 336 336 337 337 336 336 336 337 336 335
320 323 323 320 317 318 326 325 323 323 316 317 319 318 316 314 313 312 312 311 311 310 309 311 311 314 315 309 308 307 306 308 307 306 304 303 302 302 304 303 303 303 302 303 303 303 301 300 300 299 299 299 300 300 300 301 301 301 302 303 304 306 308 310 312 315 317 319 319 321 322 324 326 326 326 326 327 328 329 330 330 330 330 332 333 333 334 334 335 335 335 335 335 335 335 335 332
320 324 325 328 329 326 331 328 324 322 315 312 315 316 315 313 312 312 313 312 312 311 311 311 308 315 314 307 311 307 304 309 307 305 303 301 302 302 302 302 301 300 300 299 299 299 298 298 298 298 298 298 298 298 299 299 299 299 300 300 300 301 301 302 303 305 307 309 312 314 317 319 320 321 322 323 324 326 327 327 327 328 328 330 330 331 332 333 333 333 334 334 334 334 333 333 330
317 321 324 329 331 329 330 323 318 318 316 315 315 316 317 312 310 312 313 312 313 313 313 310 308 313 311 307 312 306 303 308 305 303 301 301 301 301 301 300 300 299 299 298 297 297 297 297 297 297 297 297 297 297 298 297 298 298 298 298 299 299 299 299 299 300 302 303 304 306 309 311 314 315 316 318 319 321 322 322 322 324 325 327 328 329 329 330 331 332 333 334 334 333 332 332 330
316 319 323 329 328 325 323 319 319 319 316 318 315 314 317 311 309 312 313 312 313 315 312 307 308 311 311 310 310 305 304 306 304 302 300 301 301 301 301 299 299 298 298 297 297 297 297 297 297 297 297 297 297 297 297 297 297 297 297 297 297 297 297 298 298 298 299 299 300 301 302 304 306 308 310 312 313 315 316 318 318 319 320 322 324 325 325 326 327 328 330 331 333 333 332 332 331
323 324 327 332 329 322 321 322 324 323 318 317 316 314 314 309 310 313 312 313 312 314 310 307 310 310 309 310 309 304 303 305 303 301 299 300 300 300 300 299 299 298 298 297 297 297 296 297 296 296 296 296 297 296 297 296 297 296 296 296 296 297 297 297 297 297 297 298 298 298 299 299 301 302 304 305 307 309 310 312 313 315 316 318 319 320 321 322 322 323 325 327 329 331 332 332 332
323 330 336 335 329 324 324 326 324 327 326 318 315 314 310 307 310 313 313 314 312 312 310 309 311 310 312 312 308 303 301 304 303 300 298 298 299 299 299 299 298 298 297 297 296 296 296 296 296 296 296 296 296 296 296 296 296 296 296 296 296 296 296 296 296 296 296 297 297 297 297 297 298 298 299 300 302 303 305 307 308 310 311 313 313 314 316 316 317 317 319 321 323 327 329 331 332
327 333 340 326 321 323 322 323 322 325 327 320 315 310 307 308 312 313 313 314 312 313 311 308 307 309 315 312 306 301 299 303 302 300 298 297 298 298 298 298 298 297 297 296 296 296 296 295 295 296 296 296 296 296 296 296 296 296 296 296 296 296 296 296 296 296 296 296 296 296 296 296 297 297 297 297 298 299 300 302 303 305 306 307 309 310 311 312 312 313 314 315 317 321 324 327 329
328 333 337 323 315 320 322 321 320 319 321 321 314 308 307 310 311 311 313 315 313 311 308 304 305 310 312 309 307 301 300 302 301 300 297 297 297 297 297 297 297 297 296 296 296 295 295 295 295 295 295 295 295 295 296 296 296 295 296 295 295 295 295 295 295 296 295 295 295 296 296 296 296 296 296 296 296 297 297 298 299 300 301 302 303 305 306 308 309 310 311 311 313 316 318 321 324
322 328 332 327 317 318 320 318 318 319 321 320 312 308 311 308 306 310 311 315 314 305 303 303 305 310 310 311 312 303 301 302 300 299 297 297 297 297 296 296 296 296 296 296 295 295 295 295 295 295 295 295 295 295 295 295 295 295 295 295 295 295 295 295 295 295 295 295 295 295 295 295 296 296 296 296 296 296 296 296 297 297 297 298 298 299 300 301 303 304 306 308 309 311 314 316 318
320 329 332 328 320 316 317 316 317 318 321 319 310 308 312 308 304 308 306 307 309 302 303 306 303 306 308 309 308 302 301 301 299 298 297 297 296 296 296 295 296 295 296 295 295 295 294 295 294 294 294 294 294 294 294 294 294 294 295 295 295 295 295 295 295 295 295 295 295 295 295 295 295 295 295 295 295 296 296 296 295 295 296 296 296 296 297 297 298 299 300 302 304 307 310 312 314
322 333 337 326 319 319 318 316 318 320 322 319 309 308 313 311 305 303 299 300 307 304 303 305 300 299 303 304 301 299 301 300 298 297 296 296 296 296 296 295 295 295 295 295 295 294 294 294 294 294 294 294 294 294 294 294 294 294 294 294 294 294 294 294 294 294 294 295 295 295 295 295 295 295 295 295 295 295 295 296 295 295 295 295 296 296 296 296 296 296 296 297 299 301 305 307 310
329 336 333 320 319 323 322 319 318 319 320 317 311 310 313 314 309 303 302 303 305 304 302 302 300 298 298 298 298 298 300 299 298 296 295 295 295 296 296 295 295 295 295 295 294 294 294 294 294 294 294 294 294 294 294 294 294 294 294 294 294 294 294 294 294 294 294 294 294 294 294 295 295 295 295 295 295 295 295 295 296 296 295 295 296 296 296 296 296 296 296 296 296 297 299 302 305
333 335 325 318 325 325 320 320 316 314 316 316 312 309 310 313 310 305 307 310 305 305 306 303 302 302 299 296 296 297 298 298 297 295 295 294 295 295 295 295 295 294 294 295 294 294 294 294 294 294 294 294 294 294 294 294 294 294 294 294 294 294 294 294 294 294 294 294 294 294 294 294 295 295 295 295 295 295 295 295 295 295 295 295 295 296 295 295 296 296 296 296 296 296 296 297 299
324 327 324 324 330 324 317 318 317 314 313 315 313 308 309 310 307 305 309 312 307 308 310 306 306 305 302 297 295 296 296 296 295 295 294 294 295 295 295 295 294 294 294 294 294 293 294 293 294 294 294 294 293 294 294 294 294 294 294 294 294 294 294 294 294 294 294 294 294 294 294 294 294 294 295 295 295 295 295 295 295 295 295 295 295 295 295 295 295 295 296 296 296 296 296 296 296
317 321 325 323 321 319 317 316 317 315 310 313 314 309 310 308 305 306 309 311 309 308 308 309 311 308 302 297 295 295 295 295 294 294 294 294 295 295 295 295 294 294 294 294 294 293 293 293 293 293 293 293 293 293 293 294 294 294 294 294 294 294 294 294 294 294 294 294 294 294 294 294 294 294 294 294 294 294 294 294 294 294 294 294 295 295 295 295 295 295 295 295 295 295 295 295 295
315 316 319 318 314 314 317 315 314 314 308 311 314 311 311 307 305 307 307 311 312 310 307 306 309 307 302 298 295 294 294 294 294 293 293 294 294 294 294 294 294 294 294 294 293 293 293 293 293 293 293 293 293 293 293 294 294 294 294 294 294 294 294 294 294 294 294 294 294 294 294 294 294 294 294 294 294 294 294 294 294 294 294 294 294 294 294 294 295 295 295 295 295 295 295 295 295
315 315 314 317 314 313 315 314 313 312 311 313 314 310 309 308 309 307 306 309 311 309 306 304 304 302 299 297 295 295 295 294 293 293 293 293 294 294 294 294 294 294 294 293 293 293 293 293 293 293 293 293 293 293 293 294 294 294 294 294 294 294 294 294 294 293 293 293 293 293 293 293 293 293 293 293 293 293 293 293 293 293 294 294 294 294 294 294 294 294 295 295 295 295 294 294 294
315 316 315 316 312 313 315 313 312 312 312 313 309 308 309 312 310 306 306 307 308 305 299 298 298 297 297 296 295 295 295 294 293 293 293 294 294 294 294 294 294 293 293 293 293 293 293 293 293 293 293 293 293 293 293 294 294 294 294 294 294 293 294 293 293 293 293 293 293 293 292 292 292 292 293 293 293 293 293 293 293 293 293 293 293 294 294 294 294 294 294 294 294 295 294 295 294
316 315 315 315 312 316 316 311 313 312 311 309 307 309 311 311 307 305 308 306 306 303 298 296 296 295 296 296 296 295 294 294 293 293 293 294 294 294 294 293 293 293 293 293 293 293 293 293 293 293 293 293 293 293 293 293 293 293 294 293 293 293 293 293 293 292 292 292 292 292 292 292 292 292 292 292 292 292 292 292 292 293 293 293 293 293 294 294 294 294 294 294 294 294 294 294 294
315 314 316 317 315 316 314 311 314 311 309 307 308 312 310 306 305 308 310 307 305 303 300 300 298 298 297 296 295 294 294 293 292 292 293 293 293 293 293 293 293 293 293 293 293 293 293 293 293 293 293 293 293 293 293 293 293 293 293 293 293 293 293 293 292 292 292 292 292 291 291 291 291 291 291 291 292 292 292 292 292 292 292 292 292 293 293 293 293 294 294 293 293 293 294 294 294
313 314 315 315 313 313 311 311 314 310 308 308 309 313 310 305 306 310 310 303 301 302 302 299 299 300 297 295 294 293 293 293 292 292 292 292 292 293 293 293 292 293 293 293 293 293 293 293 293 293 292 292 292 292 292 292 292 292 292 292 292 292 292 292 292 292 292 292 291 291 291 290 291 291 291 291 291 292 292 292 292 292 292 292 292 292 292 292 292 293 293 293 293 293 293 293 294
311 312 312 312 312 312 310 310 311 308 309 308 308 310 309 305 306 311 309 299 298 303 303 299 299 299 295 294 294 292 292 292 292 292 292 291 291 293 293 293 292 293 293 293 293 293 293 293 293 292 291 292 291 292 292 292 292 292 292 292 292 292 292 292 292 292 292 291 291 291 291 290 291 290 290 290 290 291 291 291 291 291 291 291 291 291 291 291 291 292 292 292 293 293 293 293 293
310 310 311 315 318 316 310 309 308 307 309 308 307 309 310 308 308 311 307 298 297 302 303 299 297 296 294 294 293 293 292 291 291 291 292 291 292 293 293 293 292 292 293 292 293 292 293 293 292 291 291 291 291 291 291 291 291 291 291 292 292 292 292 292 291 291 291 291 291 290 290 290 290 290 289 289 289 289 290 290 290 290 290 290 290 290 290 291 290 291 291 291 291 292 292 292 292
309 308 311 317 321 320 311 307 307 307 310 308 309 314 316 313 311 310 304 298 300 302 303 299 296 295 294 293 293 293 292 291 291 290 291 292 292 293 293 292 292 292 292 292 292 292 292 292 291 290 291 291 291 291 291 291 291 291 291 291 292 291 291 291 291 291 291 291 291 290 290 289 289 289 288 288 288 288 289 289 289 289 289 289 289 289 289 289 289 290 290 290 290 290 291 291 292
311 308 315 320 317 322 316 308 309 309 309 307 309 314 317 315 314 312 303 299 302 305 304 298 296 295 293 293 293 293 292 291 291 290 291 292 292 292 292 292 292 292 292 292 292 292 292 291 290 290 290 290 290 290 290 290 290 290 291 291 291 291 291 291 291 291 291 290 290 289 289 288 288 288 287 288 287 288 288 289 289 289 289 289 289 289 288 288 288 289 289 289 289 289 290 292 292
319 310 322 326 316 323 322 311 310 310 308 306 309 315 315 312 314 312 301 297 301 304 304 299 296 295 293 293 292 293 293 291 290 290 291 292 292 292 292 292 292 292 292 292 292 292 292 290 290 290 290 290 290 290 290 290 290 290 290 291 291 291 290 290 290 290 290 289 289 289 288 288 288 287 287 287 287 287 288 288 288 288 288 288 288 288 288 288 288 288 288 288 288 289 289 290 292
326 314 320 329 319 319 318 311 309 309 309 308 309 313 315 312 314 309 298 297 301 302 303 300 297 295 293 293 292 293 293 292 290 290 291 291 291 291 291 292 292 292 292 292 292 292 291 290 290 290 290 290 290 290 290 290 290 290 290 290 290 290 289 289 289 289 289 288 288 288 287 287 287 287 287 287 287 287 288 288 288 287 287 287 287 287 287 287 287 287 287 287 287 288 288 289 290
327 317 318 325 319 314 315 313 308 305 308 310 310 310 311 311 312 310 301 299 302 303 302 301 298 296 294 293 293 293 293 292 292 290 290 290 291 291 291 291 292 292 292 292 292 292 291 290 290 290 290 289 289 289 289 289 289 289 289 289 289 289 288 288 288 288 288 288 287 287 287 286 286 287 287 287 287 287 287 287 287 287 286 286 286 286 286 286 286 286 286 286 287 287 288 289 289
321 321 320 321 317 312 314 314 308 304 307 310 310 309 309 309 309 309 307 302 303 304 302 300 299 298 295 294 293 293 292 292 292 291 290 290 290 291 291 291 291 291 292 292 292 291 290 290 289 290 289 289 289 289 289 289 289 289 289 288 288 288 288 288 288 288 287 287 287 286 286 286 287 287 287 287 287 287 287 287 287 287 286 286 285 285 285 285 285 285 285 286 286 287 287 288 289
321 322 322 320 317 313 312 310 306 304 306 308 307 307 307 307 307 307 308 306 304 304 302 300 300 299 297 294 293 293 293 293 292 291 290 290 290 290 291 291 291 291 291 291 291 291 290 290 289 289 289 289 289 289 289 288 288 288 288 288 288 288 288 288 288 287 287 287 286 286 286 286 287 287 287 287 287 287 287 287 287 287 286 286 285 285 285 284 284 284 284 285 285 286 287 287 288
315 316 316 314 312 310 310 307 306 303 305 308 307 306 306 305 306 305 306 306 305 303 301 300 300 299 298 296 294 294 293 293 292 290 290 290 289 290 290 290 291 291 291 291 291 290 290 290 289 289 289 289 288 288 288 288 288 288 287 287 288 288 288 287 287 287 287 286 286 286 286 286 286 286 286 286 286 287 287 287 287 287 286 286 285 284 284 284 284 284 284 284 284 285 286 287 288
308 311 311 310 310 309 307 306 306 305 305 308 309 308 307 305 306 306 306 307 307 305 303 302 302 301 299 297 295 294 294 293 292 290 289 288 289 289 289 289 290 290 290 291 290 290 290 290 289 289 289 288 288 288 288 288 287 287 287 287 287 287 287 287 287 287 286 286 286 286 286 285 286 286 286 286 286 287 287 286 286 286 286 285 284 284 284 284 283 283 283 283 284 285 285 287 288
308 311 310 310 310 310 310 307 307 305 305 309 310 307 307 306 306 307 307 307 307 307 306 305 304 303 300 298 296 295 294 294 293 291 288 287 287 287 288 288 289 290 290 290 290 290 290 290 289 289 289 288 288 288 287 287 287 287 287 287 286 286 286 286 286 286 286 286 286 285 285 285 286 286 286 286 286 286 286 286 285 285 285 284 283 283 283 283 283 282 282 283 283 284 285 286 288
310 311 312 313 310 311 313 310 307 307 306 307 308 306 306 306 306 306 308 307 307 307 306 306 304 303 302 299 297 296 295 294 293 291 289 287 287 286 286 287 288 289 290 290 290 290 290 289 289 289 289 288 288 287 287 287 286 286 286 286 286 285 286 286 286 286 286 287 287 286 286 286 286 286 285 285 285 286 285 285 285 285 284 284 283 282 282 282 282 282 282 282 283 284 285 286 287
314 312 310 313 312 312 313 311 308 310 309 305 307 309 310 311 309 308 309 307 307 305 305 306 303 301 302 301 299 297 296 295 293 292 290 288 286 286 286 286 287 288 289 290 290 290 290 289 289 289 289 288 288 287 287 286 286 286 286 285 285 285 285 285 286 286 286 286 286 286 286 285 285 284 284 285 285 285 285 285 285 284 284 283 283 282 282 282 281 281 281 281 282 283 284 285 286
318 317 312 311 312 312 311 310 309 314 317 308 307 313 312 314 315 315 315 313 312 310 308 309 306 302 301 300 299 298 296 296 294 292 291 288 287 286 286 286 287 287 288 290 290 290 290 289 289 289 288 288 287 287 286 286 286 285 285 285 284 284 284 284 284 284 284 284 284 284 284 284 283 283 283 284 285 285 284 284 283 283 283 282 282 281 281 281 281 281 281 281 281 282 283 284 284
316 316 312 309 308 310 309 309 310 318 319 308 308 316 314 312 315 319 319 317 315 312 310 310 308 305 303 300 299 298 297 295 294 293 291 289 287 287 286 285 286 287 288 290 290 290 290 289 289 288 288 288 287 286 286 286 285 285 285 284 284 283 283 284 284 282 282 282 282 283 284 284 284 282 283 284 284 284 283 282 282 281 281 281 281 280 280 280 280 280 280 280 281 281 282 283 283
318 312 311 311 308 310 311 309 310 313 312 308 309 312 313 312 314 315 314 313 312 310 311 309 306 305 304 301 299 298 297 295 294 293 291 290 288 287 286 286 286 287 288 289 290 290 289 289 288 288 288 287 286 286 286 285 285 285 284 284 283 282 282 283 282 281 281 281 282 283 283 284 284 283 283 284 284 283 282 282 281 281 281 280 280 280 280 280 280 280 280 280 280 281 281 282 282
317 308 307 310 309 312 312 308 309 309 307 311 311 307 310 314 314 312 308 308 313 314 315 312 309 309 306 303 301 298 297 295 293 293 291 290 288 287 287 286 286 286 288 289 290 290 289 288 288 288 287 287 286 286 285 285 285 284 284 283 282 282 281 281 281 280 280 280 280 282 281 282 282 282 283 284 283 283 282 281 281 280 280 280 279 279 279 279 279 279 279 279 280 280 281 281 282
309 304 306 308 308 308 308 308 308 310 310 314 313 307 311 315 314 313 308 309 315 316 316 313 311 312 308 305 303 299 296 295 293 292 291 290 288 287 287 286 286 286 288 289 289 289 289 288 288 287 287 286 286 285 285 285 284 284 283 282 282 281 281 280 280 280 279 279 279 280 280 280 281 281 282 283 283 282 281 280 280 279 279 279 279 279 279 279 279 279 279 279 279 279 280 280 281
303 306 310 312 311 307 308 311 310 312 315 316 313 308 309 314 316 315 311 313 317 316 315 313 313 316 313 306 303 300 297 295 292 292 291 289 288 287 286 286 286 286 287 288 289 289 288 288 287 287 286 286 286 285 285 284 284 283 283 282 281 281 280 279 279 279 279 279 279 279 279 279 280 281 282 282 282 281 280 280 279 278 278 278 278 278 278 278 278 278 278 278 279 279 279 280 281
305 313 315 316 317 313 315 316 312 315 319 318 313 306 307 312 315 314 312 312 314 314 316 319 319 321 319 309 302 300 297 294 292 291 290 288 287 286 285 285 285 286 286 287 288 288 288 287 287 286 286 286 285 285 284 284 283 283 282 281 280 280 279 279 279 279 279 278 278 278 279 279 280 281 282 282 281 280 279 279 278 278 278 278 278 278 278 278 278 278 278 278 278 278 279 279 280
307 315 318 319 319 319 322 320 316 318 319 314 307 305 307 309 311 311 310 311 311 310 312 318 321 323 320 310 304 301 296 293 292 290 289 288 287 286 285 285 285 285 286 286 287 287 287 287 286 286 286 285 285 285 284 283 283 282 281 280 280 279 279 279 278 278 278 277 277 277 278 278 279 281 281 281 281 280 279 278 278 277 277 277 277 277 277 277 278 278 278 278 278 278 278 279 279
306 313 319 320 320 321 322 318 315 315 316 310 303 307 311 310 311 310 309 309 310 307 306 309 314 318 315 307 301 300 295 292 291 289 288 288 287 286 285 285 285 285 285 286 287 287 287 287 286 286 285 285 285 284 284 283 282 281 280 280 280 279 279 278 278 278 277 277 277 277 277 277 278 279 279 279 279 278 278 278 277 277 277 277 277 277 277 277 277 278 278 278 278 278 278 278 279
306 312 315 317 323 324 320 320 317 316 320 314 304 309 315 313 314 313 309 308 309 308 307 305 306 306 304 300 298 298 295 291 289 288 288 287 287 286 285 285 285 285 285 285 286 287 286 286 286 285 285 285 284 284 283 282 281 281 280 280 280 279 279 278 278 278 277 277 277 277 277 277 277 278 277 277 277 277 277 276 276 276 276 276 276 277 277 277 277 277 277 278 278 278 278 278 278
308 311 312 314 320 318 314 319 316 314 320 316 308 311 315 311 312 313 310 308 307 308 306 305 306 303 301 301 300 298 294 291 289 288 288 287 287 286 286 285 285 285 285 285 286 286 286 286 285 285 285 285 284 283 282 281 281 280 280 280 280 279 279 278 278 278 278 278 277 277 277 277 277 277 277 277 277 276 276 275 276 276 276 276 276 276 277 277 277 277 277 277 277 278 278 278 278
308 309 312 312 312 313 315 317 312 310 315 316 313 313 312 310 311 312 311 309 308 307 303 303 305 302 301 303 301 298 294 291 289 288 288 287 286 286 286 286 285 285 285 285 285 286 286 286 286 285 284 284 283 282 282 281 281 280 280 280 280 279 278 278 278 279 279 279 278 277 277 277 277 277 276 276 276 276 275 275 275 275 275 276 276 276 276 276 277 277 277 277 277 277 277 277 277
310 314 313 308 308 311 317 319 316 314 315 317 316 313 310 311 311 309 308 308 309 307 304 304 303 300 301 302 300 297 294 290 289 288 287 287 286 286 286 286 285 285 285 284 285 286 286 286 286 285 284 284 283 282 281 281 281 280 280 280 279 279 279 279 279 279 279 278 278 277 277 277 277 276 276 275 275 274 274 274 274 274 275 275 275 275 276 276 276 276 277 277 277 277 277 277 277
307 312 308 308 313 314 314 316 317 316 315 318 319 313 309 310 310 310 309 310 311 308 305 305 303 301 301 301 300 298 293 290 289 287 287 287 286 286 286 285 285 285 285 285 285 285 285 285 285 285 284 283 282 281 281 280 280 280 280 280 280 279 279 279 279 279 278 278 277 277 277 277 276 276 275 275 274 273 273 273 273 274 274 274 274 275 275 276 276 276 276 276 276 276 276 276 276
301 304 303 306 312 315 315 314 315 317 315 315 315 311 310 312 314 314 311 312 313 311 309 307 305 303 301 299 300 299 294 290 289 287 287 286 286 286 285 285 285 284 284 284 285 285 285 285 284 284 283 282 281 280 280 280 280 280 280 280 280 280 280 280 279 279 278 277 277 277 276 276 275 275 274 274 273 273 272 272 273 273 273 273 274 274 275 275 275 276 276 276 276 276 276 276 276
303 305 306 306 306 311 314 311 312 317 316 315 314 310 310 314 315 315 314 313 310 312 314 311 307 305 301 298 299 299 295 291 289 288 287 286 286 285 285 285 284 283 283 284 284 285 284 284 284 284 283 282 280 280 279 279 279 279 280 280 280 280 280 279 279 278 277 277 276 276 275 274 274 274 273 272 272 271 272 272 272 272 273 273 273 274 274 275 275 275 275 275 275 275 275 275 275
306 306 307 306 306 310 312 311 311 313 315 317 316 311 309 313 313 316 320 315 308 311 315 311 310 309 304 300 298 297 296 293 290 288 287 286 285 285 284 283 283 283 282 283 284 284 284 284 284 283 282 281 280 279 279 278 278 279 280 280 280 279 279 278 278 277 276 276 275 275 274 273 273 272 271 271 271 271 271 271 272 272 272 272 272 273 273 273 273 273 273 274 274 274 274 274 274
Wind_Speed
3 3 3 2 2 4 2 3 1 2 3 2 0 1 2 2 1 2 2 2 1 1 2 1 2 2 2 3 5 5 2 2 3 2 1 3 6 4 5 7 8 8 8 7 6 4 5 8 8 7 7 7 7 8 8 8 9 10 11 11 10 11 12 11 10 9 8 8 8 8 8 9 9 9 9 10 10 11 12 13 13 14 14 13 12 11 11 10 10 10 10 10 11 11 11 12 12
2 2 1 2 1 2 2 2 2 2 4 2 2 2 1 1 0 4 6 4 3 2 2 3 5 4 4 5 5 4 2 1 1 1 1 7 6 4 7 8 8 8 8 7 7 7 7 9 9 8 8 8 8 8 8 8 8 8 9 9 9 10 11 11 10 10 9 10 9 9 10 10 10 10 9 10 10 11 11 11 11 13 14 13 13 13 12 11 12 12 12 12 12 13 13 13 13
1 2 1 2 0 2 1 2 1 0 3 1 2 2 1 2 4 5 6 5 6 6 3 3 3 3 3 2 1 1 1 1 1 2 1 7 5 4 9 9 9 9 8 9 8 9 10 11 10 10 9 9 8 8 8 7 7 7 7 7 7 6 7 8 8 9 8 9 9 9 11 11 11 11 11 12 12 12 11 11 10 11 11 12 13 13 13 13 13 13 12 13 13 13 14 14 15
1 2 2 2 1 2 3 3 1 2 2 2 2 3 2 4 5 4 4 6 8 6 2 1 1 1 1 1 2 1 1 1 1 3 2 6 6 7 11 11 10 10 9 9 9 10 12 11 10 10 10 10 9 9 8 8 7 7 6 6 5 4 4 5 6 6 7 8 9 9 10 10 11 12 12 13 13 12 11 11 11 11 10 11 12 12 13 13 14 14 12 13 13 14 15 16 16
2 2 1 3 2 0 2 2 2 2 2 3 1 3 4 5 5 5 4 6 5 3 2 2 1 0 0 1 2 1 2 1 2 5 5 8 10 11 13 12 12 11 10 10 10 12 13 12 11 11 12 12 11 11 10 10 9 8 7 6 6 4 3 3 4 5 6 7 7 8 9 9 9 10 11 12 12 12 11 11 11 11 11 11 11 11 12 13 13 13 13 13 13 14 16 17 17
4 4 3 4 2 1 3 2 2 1 3 4 2 3 5 6 7 8 6 3 3 2 3 2 2 2 1 1 1 1 2 3 5 8 8 11 13 14 15 14 14 13 12 12 12 14 15 13 13 13 13 13 13 13 12 12 11 10 9 8 7 6 4 4 3 3 4 4 5 6 7 8 8 9 9 10 10 11 11 11 12 12 12 12 12 12 12 12 13 13 13 13 13 13 15 17 17
6 4 3 4 1 2 3 2 3 2 3 4 2 3 6 7 6 9 6 3 2 2 3 3 3 4 1 1 1 1 2 4 6 9 12 14 15 16 16 15 15 15 15 14 13 14 15 14 13 13 13 13 13 12 12 12 12 11 11 10 9 8 7 6 5 4 3 3 4 5 6 7 7 8 8 8 8 9 9 10 11 12 13 13 13 13 12 12 13 13 14 14 14 14 15 16 16
5 2 1 3 1 3 3 2 3 2 1 2 3 2 6 8 7 9 8 5 3 3 3 4 3 2 1 1 1 1 2 6 8 12 15 16 17 16 16 16 16 16 15 14 13 13 14 13 12 12 12 12 12 11 11 11 11 11 10 10 10 9 8 8 7 6 5 4 4 4 5 5 6 6 7 7 7 8 8 8 9 10 11 12 13 13 13 13 13 13 14 14 14 15 15 16 16
4 2 1 3 2 2 2 0 1 2 2 3 4 3 4 7 7 8 9 4 1 3 3 5 4 2 2 2 1 1 2 9 13 15 17 17 17 17 16 16 15 15 14 13 12 11 12 13 12 12 12 12 12 12 11 11 11 10 10 10 10 9 9 8 8 7 6 5 5 5 4 4 5 5 6 7 7 7 7 7 8 8 9 10 11 12 13 13 13 13 14 14 15 15 16 17 17
4 3 2 2 2 2 2 1 2 2 4 4 4 5 4 7 6 5 8 5 2 4 3 3 2 1 4 4 1 1 5 13 17 17 17 17 17 16 15 15 15 14 13 12 11 11 11 11 12 12 11 12 12 12 12 12 11 11 11 10 10 10 9 9 9 8 8 7 7 6 6 5 5 5 5 6 7 7 7 7 7 8 8 9 9 10 11 12 12 13 13 14 15 15 16 17 18
2 3 2 3 3 1 2 3 3 3 4 3 4 5 5 8 6 3 3 3 2 4 4 3 2 3 3 2 1 1 9 16 18 19 18 17 16 15 15 14 14 13 12 12 10 10 10 10 11 11 11 11 11 11 11 12 12 12 12 12 12 11 10 10 9 9 9 9 9 8 8 7 7 7 7 7 7 7 7 8 8 8 8 9 9 10 11 11 12 13 13 14 15 15 16 17 18
1 2 3 3 2 2 2 2 4 4 4 3 3 4 3 7 6 5 5 4 4 3 4 5 3 4 4 2 2 4 12 19 20 20 18 17 17 15 15 14 13 12 11 11 10 9 10 10 10 10 11 11 11 11 11 11 12 12 12 12 12 12 12 12 11 10 10 10 10 10 9 9 8 8 8 8 8 8 8 8 8 9 9 9 10 10 11 11 12 13 13 14 15 15 15 15 17
2 1 4 2 2 1 1 2 3 3 4 3 3 2 4 7 5 6 7 3 5 5 4 6 3 3 3 2 1 3 11 21 22 20 19 18 17 16 15 14 12 11 11 10 9 9 9 10 10 11 11 11 11 11 11 12 12 12 12 13 13 13 13 12 12 12 12 12 11 11 11 10 10 9 9 9 8 8 8 8 8 9 9 10 10 11 11 12 12 13 14 15 15 15 15 15 16
3 2 4 2 1 1 2 1 2 1 4 4 2 2 3 3 3 4 7 4 7 6 2 4 6 2 2 2 1 2 12 24 24 20 20 18 17 16 15 14 12 11 10 9 9 9 9 10 10 11 11 11 12 11 12 12 12 12 12 13 13 13 13 13 13 13 12 12 13 12 12 12 11 11 11 10 10 9 9 8 8 9 10 10 11 11 12 12 13 14 14 15 16 16 16 16 16
3 2 4 3 2 1 2 1 1 3 4 3 2 4 3 0 1 3 5 6 6 4 1 3 6 3 3 5 3 4 17 27 24 22 21 19 18 17 15 14 12 11 10 9 9 9 9 9 10 10 10 11 11 12 12 12 12 12 12 12 13 13 13 13 13 13 13 13 13 13 13 13 12 12 11 11 12 11 11 11 10 10 11 11 12 12 12 13 13 14 15 16 17 17 17 17 17
2 3 4 3 1 1 3 2 2 2 4 3 1 3 4 1 2 3 3 2 1 1 1 4 5 1 2 6 2 4 22 29 25 23 21 20 19 17 16 15 13 12 11 10 10 10 10 9 9 10 10 11 11 11 11 12 12 12 12 12 12 13 13 13 13 13 13 13 13 13 13 12 12 12 12 12 12 12 13 13 13 14 14 14 13 14 14 14 15 15 16 17 18 19 19 19 18
2 3 4 2 2 2 4 4 4 3 4 3 2 4 5 2 1 2 1 2 2 1 2 4 3 1 2 3 4 7 27 31 27 25 22 21 20 18 17 15 14 13 12 11 10 10 9 8 8 9 9 10 10 10 11 11 12 11 12 12 12 13 13 13 13 13 13 13 12 12 12 12 12 12 12 12 13 13 14 15 15 16 17 17 17 16 16 16 16 17 17 18 19 20 20 21 20
3 3 3 1 3 3 5 7 7 4 2 3 4 5 6 3 3 2 1 1 1 1 4 3 4 4 4 4 1 16 31 31 29 28 24 22 20 19 18 16 15 13 13 11 10 9 8 7 8 8 8 9 9 9 10 10 10 11 11 11 12 12 13 13 13 14 14 13 13 12 12 12 12 12 13 13 13 14 15 16 17 17 18 19 19 19 19 19 19 18 18 19 19 21 22 22 23
3 3 2 2 5 5 5 7 6 3 1 3 4 4 4 5 5 4 3 2 1 3 5 3 6 7 4 3 9 21 29 29 29 28 24 22 20 20 18 17 16 14 13 12 10 9 7 7 7 7 7 7 8 8 9 9 9 10 10 10 11 12 12 13 13 14 14 14 14 14 13 13 13 13 13 14 14 14 14 15 16 17 18 19 20 21 21 21 21 20 20 20 20 21 21 22 24
2 3 2 4 5 4 4 6 6 5 3 3 4 3 3 5 4 4 3 1 2 7 7 5 9 12 7 6 13 20 24 25 25 24 22 21 21 21 20 19 17 15 14 13 11 9 8 7 6 6 6 6 7 7 8 9 9 9 9 10 10 11 11 12 12 13 13 14 14 14 14 14 14 14 14 14 14 14 15 15 16 17 17 19 19 20 22 22 23 23 22 22 22 22 22 22 23
1 3 3 4 2 2 5 7 6 5 3 4 4 3 2 4 3 3 4 2 5 9 11 11 14 15 10 7 12 19 21 22 22 22 21 21 21 21 20 19 18 16 14 13 12 10 8 7 5 5 4 4 5 6 7 8 8 8 9 10 10 10 10 11 11 11 12 12 13 13 13 14 14 14 15 15 15 16 17 18 18 19 20 21 21 22 22 23 24 24 25 24 24 24 23 23 23
1 0 3 4 3 2 4 5 4 3 4 3 5 3 4 3 2 4 8 8 8 6 9 13 14 9 10 11 14 17 17 19 21 22 22 23 22 21 20 18 17 16 15 14 12 10 9 7 5 4 2 3 4 5 6 7 7 7 8 9 9 9 10 10 10 10 11 11 12 12 12 13 14 14 15 15 16 16 18 19 20 21 22 23 24 25 25 25 25 25 25 26 25 25 24 24 23
0 2 3 3 4 3 3 2 3 4 6 4 4 3 3 3 4 4 9 15 8 2 3 7 8 7 14 15 15 14 13 17 21 25 25 25 24 23 22 19 18 17 16 15 13 11 9 7 5 3 1 1 2 4 5 5 6 7 8 8 8 9 9 9 9 10 10 10 11 11 12 13 14 14 15 15 16 17 17 18 19 20 22 23 24 25 26 27 27 27 26 26 26 26 25 25 24
2 1 3 2 3 6 3 2 2 4 5 5 3 1 3 5 5 1 8 18 9 2 1 2 4 10 16 14 11 13 15 18 22 25 26 26 25 24 21 19 18 17 17 16 13 11 9 7 5 3 1 0 1 3 4 4 5 6 6 7 7 8 9 9 9 9 9 9 10 10 11 12 13 14 15 16 17 17 18 18 18 19 19 21 22 23 25 26 27 27 27 27 27 27 26 26 26
3 2 3 1 2 6 4 1 2 3 4 1 2 3 4 5 2 2 13 16 9 5 2 4 5 10 12 12 11 12 13 17 20 22 24 24 23 22 20 19 19 18 18 17 14 12 10 8 5 3 2 1 1 2 3 4 4 5 5 5 6 7 8 8 8 8 8 8 9 9 10 12 13 14 15 16 17 17 18 19 20 20 20 21 21 21 22 24 25 26 27 27 27 27 27 28 27
2 4 4 2 3 5 4 4 2 1 3 2 2 7 5 2 1 7 15 11 5 4 3 5 7 8 10 10 10 11 11 15 21 22 23 23 22 22 21 20 20 20 19 17 15 13 11 8 6 3 3 2 2 2 2 3 3 3 3 4 5 5 6 7 7 8 8 8 9 9 10 11 12 14 15 15 16 17 18 19 20 22 23 23 23 23 22 22 23 24 25 26 27 27 28 28 28
3 4 3 4 3 4 2 3 3 1 3 5 6 8 5 3 1 6 8 2 3 5 4 4 7 8 9 8 9 11 12 16 23 23 22 22 23 24 23 23 22 21 20 19 16 14 11 8 6 4 4 3 2 2 2 2 2 2 2 3 3 4 4 5 6 6 7 7 8 9 10 12 13 14 15 16 17 17 18 19 20 21 22 24 25 25 24 23 23 22 23 23 25 26 27 28 28
1 1 3 5 4 5 2 3 4 1 2 6 7 5 3 3 2 10 5 2 3 6 5 5 7 7 7 8 8 9 12 17 22 22 23 25 26 27 27 26 25 23 22 20 17 14 12 9 7 6 5 4 3 2 2 1 1 1 1 2 2 3 3 3 4 5 5 6 7 9 11 13 14 15 16 17 18 19 19 19 20 21 22 23 24 25 25 25 24 24 23 22 22 23 25 27 28
1 2 2 6 7 4 4 1 2 1 2 6 6 3 5 4 11 14 3 3 2 5 6 6 7 6 5 7 6 6 10 16 20 23 25 26 28 29 29 28 26 25 23 20 18 15 13 10 8 7 6 5 4 3 3 2 1 0 0 1 1 1 2 2 3 3 4 6 7 9 11 13 14 14 16 17 18 19 19 20 21 22 23 24 24 25 25 25 25 25 25 24 23 23 24 26 27
0 2 1 4 7 4 3 2 1 2 2 4 3 5 7 9 16 12 2 5 4 4 7 5 6 6 5 6 6 6 10 15 20 24 24 25 28 29 29 28 26 25 24 21 19 17 14 12 9 8 7 6 5 4 3 3 2 2 1 0 1 1 1 1 2 3 4 6 8 9 10 12 13 14 15 17 18 19 20 20 21 22 23 24 25 25 26 25 25 25 25 25 25 24 24 25 27
0 1 2 2 2 4 5 1 2 2 1 2 3 5 9 9 12 9 4 6 6 7 8 6 6 6 5 7 7 7 10 15 19 21 24 25 27 28 28 28 26 26 25 24 21 19 16 13 10 9 8 7 6 5 4 4 4 3 2 1 1 2 2 2 2 3 4 6 8 9 10 12 13 14 16 17 18 19 20 21 22 23 24 25 26 26 26 25 25 24 24 24 25 25 23 23 24
3 1 3 3 0 4 8 3 4 3 1 1 3 4 10 12 10 4 3 5 6 9 9 7 8 8 8 7 7 7 8 13 17 20 24 25 27 29 29 29 28 27 26 25 23 20 17 14 12 11 9 8 7 6 6 5 4 3 2 2 2 2 2 3 3 3 4 6 7 8 10 12 14 15 15 17 18 19 20 22 23 23 24 25 26 26 26 25 25 24 24 23 23 24 25 25 24
3 1 3 3 2 3 6 3 3 3 1 1 3 3 7 10 7 1 3 5 6 8 9 8 9 10 9 7 8 8 7 9 12 20 26 26 28 30 30 30 29 28 27 26 24 22 19 15 13 12 11 10 8 7 6 5 4 3 3 3 3 3 4 3 3 3 4 6 7 9 11 13 15 15 15 17 18 19 20 21 23 24 24 25 25 26 25 24 24 24 25 23 22 23 24 26 27
3 2 2 4 3 3 5 4 2 0 2 3 3 5 11 15 12 6 4 6 7 9 12 10 9 10 9 8 9 9 9 8 10 20 28 28 29 31 31 30 30 29 27 26 25 23 19 16 15 13 12 10 9 7 6 5 4 4 4 4 4 4 5 5 5 5 5 7 9 10 12 14 15 15 16 17 18 19 20 21 23 23 24 24 25 25 25 25 24 23 25 25 23 22 22 23 26
4 3 3 4 3 4 5 5 2 2 1 4 3 6 15 19 19 14 7 7 9 13 13 9 10 12 10 9 9 9 10 11 13 21 27 28 30 32 32 31 31 30 29 27 25 22 19 16 15 14 12 10 9 8 6 6 5 5 5 5 5 5 5 6 6 6 6 8 9 10 12 14 15 16 17 18 19 20 21 22 24 24 25 25 25 26 25 26 25 24 25 25 24 23 22 23 25
6 5 4 5 5 5 7 6 4 1 1 7 9 9 15 17 19 19 9 6 9 14 11 7 10 12 9 9 9 10 12 12 14 20 24 28 31 33 33 33 32 31 30 28 26 23 20 17 16 14 12 10 9 8 6 6 6 6 6 6 6 5 6 6 6 7 7 7 8 10 12 14 15 16 17 18 19 21 22 23 25 26 26 27 27 27 26 26 26 25 24 23 24 23 21 22 23
5 4 4 5 6 7 7 4 3 0 2 8 10 9 13 16 18 21 11 4 9 15 11 9 13 12 9 9 11 13 14 11 12 18 23 28 31 33 33 33 33 31 31 30 28 25 21 18 17 15 12 11 9 8 7 7 6 6 6 7 7 6 7 7 6 7 7 8 9 11 13 14 15 17 18 19 20 22 23 25 26 26 27 27 27 26 26 26 25 25 25 24 22 21 19 18 19
4 4 4 5 5 7 8 4 4 2 2 6 7 7 13 16 17 20 14 8 15 17 10 13 18 14 9 10 13 13 11 7 8 14 20 26 30 32 33 33 34 33 33 31 29 26 22 19 17 15 13 11 9 8 8 8 7 7 7 8 9 9 8 8 8 8 8 9 10 12 14 15 17 17 18 19 20 22 23 25 26 26 27 27 27 27 26 26 26 26 25 24 21 19 19 18 17
3 3 2 4 4 4 7 4 4 2 2 4 6 8 15 17 18 23 20 13 17 14 10 15 18 14 10 11 13 11 10 8 9 11 16 24 28 29 30 32 34 34 33 32 29 26 23 20 19 16 14 13 10 10 9 9 9 8 8 8 10 11 9 9 10 9 10 11 12 13 15 16 17 17 18 18 20 22 23 24 25 26 27 27 27 27 27 27 27 26 23 21 21 20 18 17 14
3 3 3 5 3 1 5 4 4 2 2 4 7 10 14 14 16 20 15 8 12 11 9 14 15 12 11 11 11 11 13 13 12 11 13 19 24 27 29 31 32 32 32 33 31 28 25 23 20 18 16 14 13 11 11 10 9 9 9 9 11 12 11 10 11 10 11 13 13 13 15 16 18 18 18 19 21 22 23 24 25 26 27 26 26 26 27 27 26 25 23 20 19 19 19 16 13
3 5 7 6 4 5 6 3 4 4 2 3 6 10 10 7 10 12 6 3 7 7 6 12 12 9 9 8 9 12 14 14 13 13 13 16 22 27 29 30 32 33 34 35 34 31 28 24 21 19 18 16 14 13 12 11 11 10 10 10 11 12 12 12 11 12 12 14 15 15 15 17 18 19 19 20 21 23 23 24 25 26 27 27 26 26 27 27 26 24 22 19 17 18 21 20 16
4 6 11 10 7 7 6 3 5 4 3 3 4 7 8 2 4 8 4 3 7 3 5 13 12 7 7 9 9 11 12 11 11 13 14 16 22 26 27 29 32 34 36 37 36 33 29 25 22 20 18 17 15 14 13 12 12 11 10 10 11 11 13 13 12 13 14 15 16 17 17 17 19 20 20 21 22 23 23 24 25 25 26 27 26 26 27 27 27 24 21 18 18 17 20 23 21
3 5 8 8 6 4 4 1 2 1 3 3 3 1 9 4 3 7 5 5 10 8 7 13 12 6 8 10 10 10 9 8 9 11 14 16 21 23 26 31 34 35 37 37 35 33 29 24 22 21 19 17 16 14 14 14 13 12 11 10 10 10 13 14 12 13 15 16 17 18 18 18 19 20 21 22 22 23 24 24 25 25 25 26 26 25 26 26 26 25 21 18 18 18 18 22 24
4 3 4 6 6 5 5 3 2 3 1 3 0 3 8 9 6 6 4 5 12 14 14 14 11 8 9 10 10 10 9 9 10 11 14 16 20 25 28 32 35 35 36 36 36 33 28 25 23 21 19 18 16 15 15 15 14 12 11 10 11 11 12 14 14 14 15 16 18 18 19 19 19 21 22 23 23 24 24 25 25 25 26 27 26 26 26 25 24 23 21 18 19 19 19 23 26
4 4 6 6 6 5 4 4 3 2 2 3 4 4 5 11 5 1 3 3 10 13 16 15 11 10 9 9 10 9 8 9 11 12 14 15 21 28 31 32 33 34 35 36 36 33 29 25 23 21 20 18 16 15 15 15 14 12 11 10 11 11 12 13 14 15 16 16 18 19 20 21 22 22 23 24 25 25 25 25 26 26 27 28 28 28 28 26 25 22 21 20 20 21 21 23 27
3 6 6 5 5 4 4 3 2 1 2 7 8 7 5 10 4 3 2 3 9 11 12 12 10 9 8 8 8 6 6 8 10 11 12 15 22 27 29 29 31 33 35 36 36 33 29 26 24 23 21 18 16 15 15 15 13 12 10 10 11 11 11 12 14 15 16 16 18 20 21 22 23 24 25 25 26 26 26 27 27 27 28 29 29 30 30 28 26 24 22 22 22 24 23 23 26
6 7 5 5 4 4 3 1 2 1 4 9 10 13 10 9 3 5 4 5 9 10 9 8 8 9 8 6 5 5 6 7 8 9 8 12 19 24 26 28 30 33 34 34 34 33 30 27 25 24 21 18 15 14 14 14 12 11 10 9 10 11 11 12 14 15 16 16 19 20 21 23 24 25 26 27 27 27 27 27 28 29 29 30 30 30 30 28 26 24 22 22 23 24 24 23 26
5 4 3 3 3 3 4 4 3 1 6 6 5 9 11 10 6 4 6 7 8 9 9 9 9 9 6 4 4 5 6 6 7 7 7 9 13 18 24 26 28 31 33 34 34 33 30 27 25 24 21 17 14 13 14 13 11 10 9 9 10 10 10 11 13 15 16 16 18 20 22 24 25 26 27 28 28 28 28 29 29 30 30 31 31 30 29 28 26 24 22 23 24 24 24 24 25
4 4 4 2 4 3 3 3 1 3 8 4 2 4 6 12 11 7 8 11 11 10 10 10 9 9 5 3 4 4 5 6 7 7 8 9 10 14 20 24 26 29 33 35 35 33 31 28 26 24 21 16 13 13 13 12 10 9 9 9 9 9 10 11 12 14 15 16 17 19 21 23 25 26 27 28 29 28 29 30 30 31 31 32 31 30 30 28 25 24 24 24 24 25 25 25 27
6 5 4 3 1 0 3 4 2 5 8 3 3 3 4 8 8 11 17 18 16 12 11 11 8 7 6 3 4 4 5 6 7 7 9 10 11 13 19 23 25 28 31 34 35 34 31 28 26 24 20 15 13 12 12 11 10 9 9 8 8 9 9 10 12 13 14 15 16 18 20 22 24 26 27 28 29 29 29 30 30 31 32 32 31 30 29 26 24 25 25 25 25 25 26 26 28
5 4 5 5 5 4 5 4 4 7 7 4 1 2 4 4 3 9 14 14 12 9 10 8 7 7 4 4 4 5 6 7 7 8 10 10 12 16 20 23 26 28 30 32 35 35 32 29 27 23 19 15 12 12 11 10 9 8 8 7 7 8 9 10 12 13 14 15 17 19 20 22 24 26 27 28 29 29 30 30 30 31 31 31 30 29 27 25 24 26 26 26 27 26 26 28 29
2 3 4 3 5 5 3 3 4 2 5 5 3 4 6 4 3 5 5 6 8 9 7 6 9 8 3 4 7 6 6 7 8 9 11 11 13 17 21 24 27 28 30 33 36 36 33 30 26 22 17 14 12 11 11 10 9 8 7 6 6 7 8 10 12 13 14 16 18 19 21 22 24 26 28 29 30 30 30 30 30 30 30 29 28 27 26 25 25 26 26 27 28 27 27 30 30
3 3 3 3 3 5 2 3 1 4 3 7 2 6 9 5 5 7 7 5 8 9 6 8 12 7 3 6 8 7 8 8 9 10 11 11 12 17 22 25 27 30 32 35 37 36 33 29 26 21 17 14 12 12 11 10 9 7 6 5 5 7 8 10 12 14 16 18 19 20 22 24 25 27 28 29 30 31 30 30 30 30 29 28 27 26 26 26 26 27 28 29 30 29 29 31 31
5 3 5 2 2 3 3 2 3 2 5 6 5 12 14 9 7 3 5 5 11 11 8 10 11 5 5 10 9 8 9 8 9 10 9 9 11 16 22 25 29 32 34 35 36 35 32 28 25 21 17 15 14 13 12 11 9 7 5 4 5 7 9 11 13 15 17 19 21 21 23 25 26 27 28 29 31 31 31 31 30 29 28 27 26 25 25 26 26 27 28 30 30 29 29 31 31
5 4 3 3 3 2 2 2 3 4 4 5 11 17 15 11 7 2 5 10 14 13 9 10 12 9 9 11 10 10 8 7 8 9 9 10 11 16 23 26 29 31 32 34 35 33 30 27 24 20 17 16 15 14 13 11 9 6 5 4 5 8 10 12 14 16 18 20 21 23 24 26 27 27 28 29 30 31 32 30 28 28 27 25 25 25 25 25 26 27 28 28 27 27 29 31 31
2 0 1 2 2 4 3 3 3 3 3 5 12 16 13 8 7 8 11 14 14 11 10 11 14 13 11 10 10 10 9 9 10 10 11 11 12 17 23 26 27 29 31 33 34 32 30 27 24 21 19 17 17 15 13 10 8 6 4 4 6 9 11 13 15 17 19 20 22 23 24 26 26 27 28 30 30 31 31 29 27 25 24 24 24 24 24 24 25 26 26 27 27 27 29 30 30
4 3 2 2 1 2 1 2 2 3 4 4 6 12 14 6 7 10 13 13 12 12 11 12 13 13 12 11 11 9 9 10 11 10 11 12 12 15 20 22 24 26 29 31 33 32 30 28 25 22 21 20 18 15 12 9 7 4 4 5 7 9 11 14 15 17 19 21 22 23 24 25 27 28 29 29 29 28 27 25 23 22 22 23 24 24 24 24 25 27 27 27 28 28 28 30 30
8 8 8 8 6 4 1 5 3 3 4 5 4 10 17 6 6 7 8 8 10 11 11 11 11 12 12 11 12 10 9 11 11 11 10 10 10 12 17 20 23 26 28 31 32 32 31 28 26 23 21 20 17 14 11 8 5 3 3 5 8 10 12 14 16 17 19 21 22 23 24 25 28 29 28 26 24 22 21 21 21 22 23 24 25 26 25 25 25 27 28 28 28 27 27 29 31
Wind_Direction
161 162 167 154 138 162 135 61 103 334 76 80 268 192 235 183 117 175 179 188 230 245 217 161 144 156 122 127 144 147 144 172 170 142 197 146 123 107 105 105 101 96 91 89 91 84 66 58 47 42 45 47 52 56 56 60 60 59 59 56 57 54 53 50 42 37 30 26 15 3 358 352 350 340 331 327 315 310 312 305 292 292 292 289 294 303 307 309 311 312 314 314 315 316 318 319 319
156 175 197 174 87 152 203 63 107 332 57 103 218 185 227 114 106 196 190 195 190 161 124 109 104 92 73 84 114 123 95 342 206 149 117 145 124 84 106 107 106 105 103 103 100 94 87 78 69 64 65 65 65 66 64 66 64 62 61 56 56 54 53 48 43 41 37 35 29 20 16 7 3 359 351 346 339 335 331 324 308 297 291 290 294 297 301 304 307 309 311 311 311 313 314 313 311
139 181 232 204 24 50 91 41 102 81 84 140 235 228 194 154 206 218 207 191 157 144 123 112 97 82 78 74 135 111 104 312 233 151 106 153 148 92 108 106 110 111 112 112 107 102 93 86 82 77 72 73 71 68 66 63 63 60 57 53 48 41 43 40 34 31 23 19 15 14 20 19 14 8 5 7 6 1 352 343 334 319 301 295 296 295 300 305 307 306 306 308 309 312 312 312 312
132 179 236 199 81 39 67 40 145 126 117 183 248 238 203 180 197 227 223 177 152 144 128 137 100 48 124 156 179 101 142 233 220 168 125 152 154 123 113 110 113 114 119 119 118 110 96 92 91 86 79 77 74 70 66 61 58 54 52 50 47 37 25 18 11 4 349 346 353 1 10 15 15 12 11 13 13 9 3 355 349 340 325 314 309 305 306 308 308 303 303 307 308 312 314 315 314
162 170 234 173 128 60 102 72 116 101 171 177 181 236 216 193 176 181 186 173 171 163 167 150 127 290 247 161 165 157 156 140 179 167 136 146 145 128 120 115 116 117 122 122 122 114 101 98 95 92 87 83 80 78 74 69 65 59 57 53 53 52 34 9 353 339 330 329 339 350 357 0 2 7 8 6 5 5 2 357 352 347 340 335 328 318 314 313 311 307 305 306 305 310 313 314 313
165 146 59 99 108 123 124 101 117 143 212 169 157 230 200 184 171 161 159 194 243 216 178 173 164 164 233 274 186 210 176 125 143 155 145 148 144 132 126 121 120 120 120 119 119 114 105 102 100 96 91 88 84 82 79 77 74 71 68 63 60 56 48 36 19 3 352 344 344 346 349 346 343 348 351 350 351 354 351 345 346 348 345 341 339 329 320 315 314 314 310 304 302 307 309 308 307
167 168 34 75 55 36 108 135 164 188 194 169 186 205 181 182 170 153 160 195 237 222 181 188 159 134 222 264 179 248 227 165 146 154 153 147 141 133 130 127 127 121 117 117 115 112 107 104 102 97 93 90 85 82 80 78 77 75 74 72 69 64 60 54 50 44 29 19 2 349 345 338 331 331 333 334 334 335 332 328 333 342 344 340 343 338 327 322 319 315 312 310 305 303 303 302 300
137 179 5 92 19 29 88 133 189 202 154 219 242 201 186 184 166 159 174 187 192 205 179 179 160 146 236 74 149 236 206 181 159 155 151 143 139 134 133 132 129 123 118 116 112 110 107 102 99 97 93 91 89 87 83 81 79 76 73 70 68 64 61 58 55 51 40 27 10 355 349 341 337 333 330 329 324 321 318 319 323 330 335 332 333 335 329 328 325 317 315 316 309 300 296 295 293
76 46 99 81 68 38 44 60 215 238 251 257 244 216 203 180 166 165 176 201 232 176 173 171 177 221 181 120 201 286 199 170 154 153 148 142 140 136 135 133 128 122 118 114 109 105 101 98 94 92 92 90 89 87 85 83 80 76 72 67 63 59 54 52 48 43 38 29 22 14 4 356 349 343 335 330 324 322 320 323 327 329 334 329 322 327 331 328 323 321 319 316 310 300 293 290 288
39 32 142 75 82 54 350 256 231 250 239 246 246 219 187 171 172 170 175 205 210 157 175 157 158 192 147 156 205 302 184 165 155 156 150 144 142 139 136 131 126 122 118 112 105 98 94 93 90 89 89 88 86 84 82 79 76 72 68 65 59 55 49 44 39 33 28 23 22 19 17 13 4 358 348 338 332 330 330 329 331 334 337 332 322 325 332 330 325 325 322 316 310 304 297 292 287
28 2 96 78 79 132 228 228 243 258 261 287 270 232 182 165 160 155 167 207 197 158 172 157 183 166 141 200 234 173 169 168 165 159 151 147 144 140 136 130 126 123 118 110 103 98 93 92 92 90 88 86 85 82 79 74 71 67 62 59 55 51 46 41 37 31 25 20 17 16 16 14 10 8 1 352 346 341 340 337 335 335 333 332 330 328 330 331 330 328 325 321 316 308 303 298 290
84 330 63 93 148 194 210 208 248 271 303 309 230 237 168 151 153 175 180 192 185 179 202 190 196 148 140 269 241 164 168 173 171 160 152 149 145 140 137 133 129 125 118 110 105 100 95 92 89 86 85 83 81 79 77 73 68 65 60 56 53 48 45 40 38 34 30 25 20 19 16 15 13 10 7 1 355 351 348 344 341 337 332 330 330 330 331 331 332 330 326 325 322 315 308 301 293
125 153 89 127 177 159 167 188 270 309 311 265 201 212 135 151 188 196 168 157 166 173 234 200 167 125 161 253 233 167 181 179 171 162 155 148 146 142 139 136 133 128 119 114 109 102 95 89 83 80 79 76 75 74 72 70 66 63 60 56 52 48 45 41 38 35 32 30 26 24 21 18 16 14 13 7 0 356 353 350 347 342 335 331 328 326 326 327 328 328 326 325 323 319 315 308 299
139 144 113 131 71 102 157 204 280 221 259 255 179 160 142 168 218 180 146 167 194 181 247 180 149 143 189 216 229 216 190 180 171 164 157 150 148 144 142 140 136 131 124 120 113 102 93 86 83 80 77 74 71 70 68 67 64 61 59 56 53 49 45 41 37 35 32 31 28 26 24 22 20 19 17 14 11 5 1 357 353 347 340 335 331 327 324 322 321 321 320 320 318 315 314 312 308
134 122 91 103 48 3 182 228 204 171 241 229 154 153 141 276 132 146 166 187 219 194 71 163 161 188 198 180 208 222 184 176 171 167 158 153 152 148 146 141 137 134 129 125 114 104 95 87 84 80 75 73 69 68 67 65 64 61 60 58 56 53 49 44 40 37 34 32 30 27 26 24 23 21 20 19 17 14 11 8 4 357 348 341 335 331 327 323 321 318 315 313 312 309 308 309 309
121 113 72 90 127 229 205 205 121 149 248 220 194 148 140 281 129 161 222 173 225 201 157 192 183 218 184 178 245 208 175 172 171 167 160 157 155 153 150 144 140 136 132 127 118 107 98 92 86 81 75 72 68 67 65 64 63 59 59 57 56 54 51 48 44 41 38 36 33 31 29 27 25 23 22 19 17 15 13 11 10 6 359 352 345 338 332 327 323 319 315 312 309 305 303 302 303
61 81 73 83 159 206 199 188 178 178 247 242 251 185 156 263 262 183 237 92 127 216 265 231 230 278 192 226 308 173 168 169 170 167 163 162 160 157 153 147 143 138 136 131 122 114 106 100 90 84 79 76 73 70 67 63 61 58 57 54 53 52 49 47 44 42 40 39 37 35 32 30 28 24 22 19 16 12 10 9 8 6 2 358 355 350 344 337 330 324 319 314 310 306 303 300 297
55 78 96 134 174 201 187 185 198 175 232 221 207 191 162 204 226 179 159 96 112 238 266 262 284 270 232 272 242 161 165 168 171 169 167 166 164 160 156 153 149 144 140 135 129 123 116 108 96 91 86 82 78 75 71 66 63 59 56 53 51 48 46 44 40 40 39 39 38 36 34 31 28 24 21 19 16 12 9 6 4 2 359 356 355 353 350 346 341 335 329 321 315 310 305 302 298
87 112 87 228 195 209 198 180 194 178 194 194 199 195 178 205 180 158 208 238 171 212 251 260 279 265 228 198 158 159 164 168 172 172 170 169 169 165 160 157 154 151 147 144 139 132 126 116 105 99 92 86 82 78 75 71 67 61 57 52 49 45 42 40 37 37 36 36 34 32 31 28 24 20 17 15 12 10 7 4 1 359 356 353 351 350 348 347 345 341 338 332 326 319 313 309 304
143 111 97 246 212 234 229 189 203 202 152 150 196 169 194 228 160 156 208 225 194 213 231 207 238 242 207 170 163 163 166 170 175 176 175 174 175 172 167 164 162 159 155 152 146 139 133 125 115 106 94 85 80 79 79 75 70 64 59 55 50 46 41 38 35 32 31 29 27 25 23 20 18 15 12 9 6 4 2 1 359 356 355 353 350 348 347 345 344 342 340 337 334 330 325 320 313
140 115 167 229 184 254 235 200 212 206 153 153 162 125 226 231 158 182 164 176 248 231 229 210 222 225 188 169 174 172 171 173 177 181 181 180 179 176 173 169 168 164 158 154 149 144 139 135 127 112 91 79 74 78 79 75 73 68 62 56 52 50 45 41 35 31 28 23 20 18 15 13 10 9 8 6 3 1 360 358 357 356 355 352 351 350 348 346 345 343 342 340 338 336 332 328 323
97 202 208 202 147 244 236 201 212 177 125 123 130 157 214 148 169 208 169 207 239 224 229 220 225 215 168 172 176 175 177 178 181 186 187 184 180 175 172 169 167 164 159 156 152 151 148 145 142 119 93 70 67 74 74 71 71 64 59 55 51 50 48 44 37 30 26 21 17 12 9 7 4 3 4 3 3 2 360 359 357 356 354 353 352 350 349 348 347 345 344 342 340 337 334 330 326
151 268 266 228 172 219 236 172 210 160 131 155 169 190 156 130 248 224 192 225 229 137 228 229 233 190 165 169 169 175 182 185 188 191 189 185 181 176 173 171 169 165 161 161 159 159 158 158 159 137 121 64 70 79 74 67 61 54 50 45 41 41 40 38 35 29 24 18 13 9 6 3 2 0 360 1 1 2 1 360 358 356 353 352 352 350 348 348 347 346 344 342 339 336 333 330 326
104 191 271 262 172 218 245 106 186 171 168 202 189 150 155 193 245 32 221 235 229 196 206 208 204 160 160 166 171 185 186 189 193 193 192 187 184 180 177 174 170 168 165 166 167 167 170 176 176 164 187 253 100 85 72 60 52 50 43 35 32 31 31 29 28 27 22 17 12 9 6 2 1 359 358 359 359 1 1 1 360 358 356 353 352 351 348 347 346 345 343 341 338 335 332 329 325
87 168 230 231 195 240 272 300 210 195 224 247 114 221 224 209 214 289 251 243 229 224 146 127 149 145 163 175 180 188 187 192 193 192 193 189 185 179 176 174 170 170 170 171 173 175 181 188 185 183 222 231 132 91 70 61 52 49 41 33 31 29 28 26 24 24 19 17 14 9 6 3 1 360 359 359 358 360 360 360 359 358 358 356 355 354 350 348 346 345 344 340 337 334 330 327 323
186 171 199 213 263 279 315 291 247 165 232 131 169 251 266 271 304 267 260 251 214 183 118 138 150 157 182 184 184 186 186 191 189 190 190 185 181 178 176 176 174 173 174 175 177 182 187 192 190 194 216 202 157 115 92 81 69 56 46 40 37 35 29 25 22 17 13 12 10 8 8 5 3 2 0 360 359 359 358 358 357 356 357 357 356 356 354 351 348 346 344 340 336 332 328 325 321
186 163 212 221 267 304 356 295 295 359 241 170 199 253 274 332 333 253 267 290 147 141 136 170 166 182 192 188 193 191 192 193 188 184 182 181 182 181 178 177 177 175 175 177 180 186 190 193 194 203 212 197 172 144 128 114 95 67 54 48 42 41 33 28 21 13 10 7 8 8 6 5 4 3 0 359 358 357 358 357 357 356 355 356 355 354 354 352 349 347 344 340 335 331 327 325 321
155 121 280 275 316 295 240 286 290 300 248 182 184 245 278 26 245 237 246 93 158 155 171 191 190 202 194 192 194 191 202 197 188 183 181 185 185 183 181 179 178 177 179 181 182 187 191 193 200 209 211 200 184 173 168 165 131 72 51 45 43 46 40 33 22 12 11 9 8 5 3 3 360 359 358 356 356 355 357 357 357 356 354 355 354 352 352 350 347 346 344 340 336 331 326 324 322
92 87 299 300 352 316 228 274 286 179 206 183 165 270 258 196 228 240 211 129 156 154 191 203 205 211 195 199 196 198 205 195 192 194 192 189 186 185 184 183 181 179 179 182 184 187 191 195 203 209 208 201 193 195 193 193 206 234 301 31 43 43 42 32 17 9 10 8 3 1 0 360 356 356 355 353 354 353 355 356 355 356 354 353 353 352 351 349 347 345 343 339 336 332 327 325 322
119 77 59 311 355 325 239 76 56 149 177 179 158 288 259 216 233 243 160 148 144 168 216 213 211 214 202 205 204 208 204 198 200 201 198 191 189 188 186 184 183 182 179 179 183 185 189 195 204 206 200 200 199 201 202 203 223 231 251 316 3 341 2 351 350 356 360 358 355 357 357 356 354 351 350 350 350 350 352 354 354 354 353 352 352 351 350 350 348 345 343 338 333 330 324 322 320
59 15 45 7 347 289 288 16 112 159 195 160 149 266 271 259 248 240 185 168 166 206 228 215 216 214 209 212 209 215 209 208 208 203 201 196 192 190 187 184 182 184 181 179 182 183 189 195 200 200 195 202 202 201 205 210 224 229 248 278 301 309 322 321 326 339 347 348 348 351 351 349 348 345 344 344 345 346 348 351 352 351 350 349 349 349 349 349 346 344 343 338 332 328 320 315 312
30 333 306 339 202 274 299 285 182 205 296 78 155 236 276 276 266 243 175 175 187 224 233 217 221 217 215 217 210 218 215 212 214 210 206 201 196 191 188 185 181 184 183 181 182 183 190 194 196 195 194 202 201 203 210 213 226 235 248 267 280 296 310 309 308 323 334 338 338 341 341 341 341 339 338 339 341 343 345 348 349 348 347 347 346 347 348 347 345 341 339 337 329 324 319 315 309
2 47 255 275 228 284 311 289 220 228 274 255 211 236 280 276 272 284 152 188 201 233 243 225 223 222 217 218 213 216 215 212 215 215 211 204 198 193 188 187 184 185 186 184 184 185 190 193 194 194 195 201 201 204 212 217 228 234 248 261 270 283 297 295 289 302 321 325 326 328 333 337 337 336 335 336 338 340 343 344 345 346 345 344 343 344 344 343 343 338 335 333 325 317 315 314 312
321 20 251 254 230 262 301 293 280 134 175 232 225 234 259 267 274 269 191 190 208 236 245 233 225 227 220 218 216 215 214 213 214 213 210 204 197 193 189 189 188 187 187 188 189 190 191 193 195 195 197 199 202 205 211 221 226 233 250 260 266 277 287 288 283 292 311 317 319 324 329 335 335 335 334 334 336 337 339 340 342 343 342 341 340 340 340 340 339 336 330 328 324 315 308 306 308
224 230 241 270 254 241 258 266 273 88 184 242 233 240 257 268 276 272 228 183 218 242 246 239 233 233 225 215 215 216 217 218 218 211 206 202 195 191 190 189 189 188 188 189 189 191 192 194 197 197 200 200 204 209 211 222 228 237 253 261 265 276 287 288 287 294 309 314 316 322 329 333 332 332 333 333 334 334 336 337 338 340 340 339 337 336 337 336 335 333 328 324 321 314 306 304 303
185 199 194 233 254 256 247 243 252 208 256 257 244 244 260 269 274 276 260 180 223 249 251 249 243 240 227 214 216 216 221 224 218 210 204 201 195 192 191 189 189 189 189 189 188 191 193 196 198 199 202 203 207 212 214 227 237 246 257 266 269 280 293 291 289 299 309 311 314 322 327 329 328 329 331 332 332 333 334 335 335 336 336 335 334 334 333 332 331 329 325 320 316 311 306 304 305
138 152 185 230 239 263 265 254 284 296 214 258 252 252 264 267 270 274 269 196 242 253 249 254 250 245 228 214 220 217 223 227 209 205 203 200 197 193 192 189 189 190 190 190 189 192 195 198 201 200 201 205 209 217 223 233 244 256 265 275 280 286 296 293 288 299 307 310 315 321 324 326 325 328 330 331 331 331 331 331 331 332 332 332 330 329 328 327 327 325 323 319 314 309 305 303 306
117 161 206 257 235 253 270 273 320 350 181 262 275 277 268 265 269 273 266 236 254 253 236 250 253 247 233 217 224 221 223 219 190 200 200 198 197 195 193 190 189 190 189 191 192 194 196 200 203 200 202 207 212 221 229 238 249 262 271 282 292 297 301 299 298 305 308 311 317 320 323 325 325 327 328 328 327 327 328 328 328 328 328 329 326 324 324 323 323 323 323 319 314 308 300 301 304
122 139 181 259 243 271 290 310 347 359 196 270 293 286 270 265 264 267 264 246 256 255 218 238 252 248 233 220 225 220 215 213 197 199 196 196 198 195 194 192 192 193 191 192 194 195 197 201 202 200 203 208 213 223 231 240 249 261 272 282 294 300 303 302 304 309 309 313 319 319 321 322 322 324 324 324 324 325 326 325 325 325 325 325 323 321 320 319 319 320 320 315 311 306 298 298 300
154 147 179 248 241 284 283 304 331 284 227 280 291 279 267 262 256 261 269 256 259 263 227 237 249 243 234 223 220 213 211 214 205 200 195 194 198 197 197 195 193 193 193 194 194 195 199 202 201 200 204 208 214 223 229 236 244 254 267 278 288 294 296 299 303 307 310 313 315 316 318 319 319 321 323 325 324 324 323 322 321 320 320 321 320 317 315 315 314 314 314 310 306 304 299 298 293
237 196 210 239 228 221 237 281 322 308 314 327 308 291 278 258 250 260 286 317 277 266 241 254 249 233 241 234 218 214 214 213 204 199 194 191 197 200 199 197 194 194 195 196 195 196 200 202 200 201 205 209 214 223 227 232 239 246 259 271 282 289 293 300 305 308 311 312 312 315 318 319 319 319 322 324 323 321 319 318 317 316 316 316 315 313 310 309 308 307 307 303 298 296 296 297 292
286 229 217 224 223 231 249 325 352 348 325 333 6 321 298 250 231 266 289 317 288 252 223 261 257 216 222 235 226 220 219 213 203 198 194 194 199 199 198 198 197 197 198 198 197 200 201 201 200 200 203 207 213 221 227 231 235 241 250 263 276 287 294 299 304 305 308 310 310 314 317 319 318 317 320 322 321 319 316 315 313 312 311 310 309 307 305 304 303 302 300 296 290 286 288 291 288
282 244 208 206 200 212 239 293 352 276 253 304 51 333 280 262 208 269 289 301 286 273 251 260 263 230 213 227 228 221 216 205 200 198 194 197 196 195 199 200 199 200 199 198 199 201 200 200 200 200 202 206 213 220 226 231 232 236 246 259 271 281 287 294 301 301 303 307 309 313 317 318 318 318 320 321 320 318 315 313 310 308 306 304 303 300 298 298 297 297 295 288 285 282 280 281 283
239 231 133 139 152 177 194 163 195 239 272 325 322 183 272 275 238 256 291 298 284 279 271 266 261 246 228 227 227 220 211 196 194 198 196 197 196 197 200 201 201 201 198 198 199 200 199 199 200 200 201 205 213 222 226 228 229 234 244 258 269 274 280 289 299 302 304 307 310 315 318 318 319 320 321 322 320 317 313 310 307 305 302 301 299 295 292 292 291 290 289 284 280 277 272 273 277
235 184 117 120 138 153 155 144 191 266 20 307 249 169 266 274 241 288 2 261 263 267 264 264 262 252 237 231 230 219 207 197 195 200 199 198 197 200 201 200 201 200 198 199 200 199 198 198 199 199 201 204 214 222 224 225 227 232 242 253 265 273 277 286 295 298 303 308 311 314 317 318 320 321 323 322 319 316 313 309 306 302 300 299 297 294 292 291 288 284 282 280 278 274 269 268 271
184 129 95 77 77 81 90 129 158 11 340 258 237 171 222 273 223 138 58 203 240 252 257 260 261 256 243 236 234 212 198 200 201 205 203 200 200 201 200 199 200 199 199 200 199 198 197 196 196 198 200 205 215 221 220 221 224 229 239 250 264 273 279 286 292 296 303 308 309 313 316 318 319 321 323 322 319 315 312 308 305 301 298 297 295 293 292 290 286 283 280 278 276 273 270 266 265
128 108 71 49 44 51 50 62 90 7 269 255 237 182 192 269 249 168 199 202 211 223 245 259 260 261 250 234 228 196 194 202 204 208 204 199 200 198 196 197 198 198 198 199 198 197 195 195 196 197 199 205 214 219 217 217 220 228 239 249 261 273 281 288 293 299 307 309 309 314 318 318 319 321 322 321 318 315 311 307 303 300 297 294 292 291 289 287 284 282 279 277 276 272 269 267 266
107 97 71 32 341 12 17 359 57 272 257 260 249 177 184 242 254 208 238 246 220 207 221 232 234 249 245 211 207 197 198 201 197 201 196 189 190 190 193 196 195 195 196 196 195 194 194 194 195 194 197 204 212 216 214 214 218 226 238 249 260 271 279 284 291 298 305 307 309 315 319 320 321 322 322 320 317 314 309 305 302 299 296 292 291 289 287 285 283 280 278 276 275 271 267 266 266
106 102 86 43 321 354 348 307 132 227 255 249 146 143 206 244 247 238 250 256 238 216 217 217 215 228 221 188 212 208 199 199 195 195 193 191 189 189 193 194 193 193 194 193 191 191 192 193 193 194 196 202 209 213 213 213 217 225 237 249 259 268 277 284 289 295 301 304 308 314 316 316 318 320 319 316 315 312 307 303 300 296 293 291 289 287 285 284 281 278 277 275 272 270 267 265 263
163 149 129 143 160 56 273 269 275 270 271 264 136 142 257 270 256 226 225 234 230 217 221 222 222 232 230 227 224 212 208 202 197 197 196 198 196 194 194 193 193 194 193 191 189 190 191 191 192 193 195 200 207 213 213 213 217 226 237 247 260 269 279 287 289 295 302 306 309 311 311 312 313 314 313 311 311 308 304 301 298 294 291 289 287 285 283 281 278 276 275 274 271 268 266 265 264
179 154 140 160 154 181 236 234 250 275 292 292 211 177 223 242 259 220 220 236 237 225 224 225 241 249 243 257 239 217 215 206 201 204 204 205 199 194 194 193 194 194 192 190 189 190 191 191 191 191 192 197 204 209 211 213 217 224 235 246 261 272 283 291 295 301 307 310 312 311 311 312 312 311 309 309 308 305 303 299 295 291 288 287 284 282 281 278 277 276 274 272 270 268 266 265 265
201 127 126 182 174 177 232 221 198 243 317 290 230 218 223 215 288 263 238 264 252 237 233 231 246 245 231 258 246 227 218 209 206 208 208 208 199 194 194 193 193 193 191 190 190 190 190 190 191 190 191 195 199 204 207 212 214 219 230 244 261 276 288 295 301 309 312 315 314 311 312 313 313 311 310 309 308 305 302 297 293 289 286 285 281 279 278 276 276 275 273 272 270 267 266 266 265
167 150 175 208 175 139 170 268 24 73 280 274 247 255 271 297 292 240 203 231 245 239 233 231 239 237 223 248 242 229 221 211 208 211 210 204 197 197 197 194 192 191 190 191 191 190 189 189 189 187 187 191 195 201 204 207 209 212 224 242 269 286 294 302 309 315 317 317 316 314 314 315 314 313 311 309 308 305 301 296 292 287 285 283 280 277 277 275 274 273 271 271 271 269 267 267 266
131 192 212 176 116 100 109 253 341 25 246 272 289 269 273 285 284 235 165 218 242 237 226 232 241 231 228 242 238 230 224 214 215 215 213 206 199 200 199 197 196 193 191 191 188 188 188 189 189 188 188 191 195 199 199 200 204 208 224 250 281 295 303 311 315 318 319 318 317 317 317 316 316 315 312 310 307 303 300 296 292 288 286 284 281 279 278 276 274 272 270 269 270 269 267 266 265
124 198 206 113 143 167 110 172 239 255 243 276 280 275 271 256 245 193 177 216 232 233 224 230 237 227 227 238 238 234 224 212 218 215 209 208 203 202 199 197 197 194 191 188 185 185 184 185 186 187 190 193 195 196 195 197 202 208 229 264 294 305 312 317 319 321 320 317 318 319 318 317 317 315 312 310 306 301 299 296 293 290 288 286 284 282 279 276 274 271 270 270 268 266 265 264 266
73 227 34 56 161 173 168 170 183 215 227 267 279 282 276 239 192 180 204 215 218 219 215 222 229 224 222 226 231 230 217 212 216 212 210 209 205 204 201 196 193 189 187 184 182 180 180 181 183 186 190 191 193 195 193 195 201 213 243 281 304 311 316 319 321 321 319 319 320 321 320 319 316 314 312 308 304 302 301 298 294 291 289 289 288 286 282 278 275 272 270 270 270 267 263 263 267
156 175 187 217 184 127 209 232 128 144 198 237 271 278 273 244 157 179 206 212 206 201 205 214 220 222 220 220 225 223 213 217 215 210 211 208 204 203 198 194 188 183 182 180 179 178 177 180 184 187 189 191 192 193 192 195 200 217 266 297 309 315 318 319 321 321 320 322 323 323 322 319 314 313 313 309 305 305 303 298 294 293 292 291 290 288 284 279 275 274 272 271 271 268 264 265 268
174 187 194 194 183 139 192 250 222 147 198 206 191 263 271 256 141 184 201 198 204 203 208 215 216 218 220 221 224 219 213 219 216 212 210 203 199 194 187 184 180 178 179 177 176 176 177 180 184 187 190 191 191 191 191 195 201 223 282 307 313 316 319 320 322 323 324 325 326 325 323 317 313 314 314 310 305 303 302 298 296 295 294 292 290 288 285 280 276 276 276 275 272 268 266 268 269